Regional Weather Roundup
Issued by NWS Burlington, VT

Current Version | Previous Version | Graphics & Text | Print | Product List | Glossary Off
Versions: 1 2 3 4 5 6 7 8 9 10 11 12 13 14 15 16 17 18 19 20 21 22 23 24 25 26 27 28 29 30 31 32 33 34 35 36 37 38 39 40 41 42 43 44 45 46 47 48 49 50

383
ASUS41 KBTV 142310
RWRBTV
VERMONT REGIONAL WEATHER ROUNDUP
NATIONAL WEATHER SERVICE BURLINGTON VT
600 PM EST SUN FEB 14 2016

NOTE: "FAIR" INDICATES FEW OR NO CLOUDS BELOW 12,000 FEET WITH NO
SIGNIFICANT WEATHER AND/OR OBSTRUCTIONS TO VISIBILITY.

* THESE REPORTS ARE NOT UNDER NWS QUALITY CONTROL AND/OR DO NOT
  REPORT WEATHER SUCH AS PRECIPITATION AND FOG.

VTZ001>019-150000-
_____VERMONT_____


CITY           SKY/WX    TMP DP  RH WIND       PRES   REMARKS
BURLINGTON     FAIR       0 -16  46 CALM      30.49R
MONTPELIER     FAIR      -5 -18  53 CALM      30.41R
MORRISVILLE    FAIR      -5 -18  53 CALM      30.44R
ST. JOHNSBURY*   N/A     -1 -20  40 MISG      30.41R
LYNDONVILLE*   FAIR      -5 -21  46 CALM      30.37R
RUTLAND*       FAIR       0 -22  35 CALM      30.42R
SPRINGFIELD    FAIR       2 -19  37 NW6       30.43S WCI  -9
HIGHGATE*      FAIR      -5 -19  50 CALM      30.51S
NEWPORT*       FAIR      -8 -20  56 N3        30.41R
BENNINGTON     FAIR      -2 -16  51 CALM      30.43S

_____LAKE CHAMPLAIN_____


CITY           SKY/WX    TMP DP  RH WIND       PRES   REMARKS

$$

NYZ007-026>031-035-052-083-150000-
_____NORTHERN NEW YORK_____


CITY           SKY/WX    TMP DP  RH WIND       PRES   REMARKS
PLATTSBURGH    CLEAR     -4 -15  59 CALM      30.50R
SARANAC LAKE   CLEAR     -6 -18  56 W3        30.31R
MASSENA        CLEAR     -7 -20  53 SW8       30.55R WCI -23
OGDENSBURG*    CLEAR     -6 -18  54 S5        30.52S WCI -17
WATERTOWN      CLOUDY    -5 -13  68 N3        30.53S
ALBANY         CLEAR      4 -16  39 NW7       30.52R WCI  -8
GLENS FALLS    CLEAR      2 -15  45 S6        30.49S WCI  -9

$$
NHZ002-005-011-150000-
_____NEW HAMPSHIRE_____


CITY           SKY/WX    TMP DP  RH WIND       PRES   REMARKS
LEBANON        CLEAR      4 -17  37 NW5       30.42R WCI  -5
MT WASHINGTON  CLEAR    -17 -24  70 W58         N/A  WCI -57
PLYMOUTH       FAIR       1 -20  37 NW7       30.42R WCI -11
WHITEFIELD     CLEAR     -4 -20  46 W6        30.38R WCI -16

$$

_____REGIONAL QUEBEC LOCATIONS_____


CITY           SKY/WX    TMP DP  RH WIND       PRES   REMARKS
MONTREAL       PTCLDY    -4 -18  50 SW14      30.51R WCI -24
QUEBEC CITY    FLURRIES  -8 -15  71 W17G25    30.38R WCI -31
SHERBROOKE     CLEAR     -9 -20  59 W7        30.40R WCI -24

_____REGIONAL ONTARIO LOCATIONS_____


CITY           SKY/WX    TMP DP  RH WIND       PRES   REMARKS
OTTAWA         CLEAR     -4 -18  50 S7        30.49R WCI -18

______KEY______
VSB  - VISIBILITY IN MILES
WCI  - WIND CHILL INDEX
HX   - HEAT INDEX
$$
NNNN




USA.gov is the U.S. government's official web portal to all federal, state and local government web resources and services.